Regional Weather Roundup
Issued by NWS

Home | Current Version | Previous Version | Graphics & Text | Print | Product List | Glossary On
Versions: 1 2 3 4 5 6 7 8 9 10 11 12 13 14 15 16 17 18 19 20 21 22 23 24 25 26 27 28 29 30 31 32 33 34 35 36 37 38 39 40 41 42 43 44 45 46 47 48 49 50
000
ASUS45 KPSR 280110
RWRAZ

ARIZONA REGIONAL HOURLY WEATHER ROUNDUP
NATIONAL WEATHER SERVICE PHOENIX AZ
600 PM MST FRI MAR 27 2015

NOTE: FAIR INDICATES FEW OR NO CLOUDS BELOW 12,000 FEET WITH NO
SIGNIFICANT WEATHER AND/OR OBSTRUCTIONS TO VISIBILITY.

AZZ001>003-036-280200-
NORTHWEST ARIZONA

CITY           SKY/WX    TMP DP  RH WIND       PRES   REMARKS
BULLHEAD CITY  SUNNY     91  19   7 SW5       29.96S
KINGMAN        CLEAR     79  20  11 SW9       30.11F
$$

AZZ004>008-015-016-018-280200-
NORTH CENTRAL ARIZONA

CITY           SKY/WX    TMP DP  RH WIND       PRES   REMARKS
GRAND CANYON   CLEAR     68  16  13 N5        30.27R
WILLIAMS       CLEAR     68  18  14 SW10      30.35S
PRESCOTT       CLEAR     73  18  12 W12       30.20R
FLAGSTAFF      CLEAR     66  10  11 SW9       30.30S
PAYSON         CLEAR     73  16  11 W7        30.22S
PAGE           FAIR      76  22  13 NE3       30.11F
$$

AZZ009>014-017-280200-
NORTHEAST ARIZONA

CITY           SKY/WX    TMP DP  RH WIND       PRES   REMARKS
WINSLOW        CLEAR     78  11   8 N8        30.16S
SAINT JOHNS    FAIR      73   3   6 NW8       30.19S
WINDOW ROCK    CLEAR     69  10  10 W12       30.23F
SHOW LOW       FAIR      68  16  13 SW16      30.26S
$$

AZZ023-280200-
GREATER PHOENIX AREA

CITY           SKY/WX    TMP DP  RH WIND       PRES   REMARKS
PHOENIX        CLEAR     92  15   6 W8        29.95F
BUCKEYE        CLEAR     90  25   9 CALM      29.97S
GLENDALE       CLEAR     91  19   7 SW7       29.97F
LUKE AFB       CLEAR     90  22   8 SW3       29.95F
DEER VALLEY    CLEAR     88  14   6 W6        29.98F
SCOTTSDALE     CLEAR     89  15   6 W5        30.00S
MESA-FALCON    CLEAR     90  14   6 W7        29.98S
MESA-GATEWAY   CLEAR     88  19   8 CALM      30.00S
CHANDLER       CLEAR     91  16   6 S7        29.97F
$$

AZZ027-028-280200-
SOUTHWEST MARICOPA COUNTY AND PINAL COUNTY

CITY           SKY/WX    TMP DP  RH WIND       PRES   REMARKS
CASA GRANDE    CLEAR     90  27  10 CALM      29.97S
GILA BEND      FAIR      92  19   7 NW8       29.94F
$$

AZZ503-504-507>509-280200-
SOUTHEAST ARIZONA

CITY           SKY/WX    TMP DP  RH WIND       PRES   REMARKS
TUCSON         CLEAR     89  16   7 NW9       30.05R
DAVIS-MONTHAN  CLEAR     87  16   7 NW10      30.03S
RYAN FIELD       N/A     90  23   9 NW10      30.03S
NOGALES        CLEAR     83  10   6 S5        30.11S
SIERRA VISTA   CLEAR     80   7   6 NW5       30.16S
DOUGLAS        CLEAR     80  14   8 SW3       30.12F
SAFFORD        CLEAR     84  18   8 W10       30.04S
$$

AZZ020-021-025-026-031-280200-
SOUTHWEST ARIZONA

CITY           SKY/WX    TMP DP  RH WIND       PRES   REMARKS
YUMA           SUNNY     94  27   9 S5        29.93S
$$

CAZ031-033-041-043-047-048-061-280200-
SOUTHERN CALIFORNIA

CITY           SKY/WX    TMP DP  RH WIND       PRES   REMARKS
DOWNTOWN L.A.  SUNNY     80  45  28 VRB6      29.99F
L.A. AIRPORT   SUNNY     70  52  52 W10       30.00F
SAN DIEGO      MOSUNNY   73  56  54 NW9       30.02S
BURBANK        SUNNY     89  29  11 W15       30.00S
ONTARIO        SUNNY     87  28  12 W18G24    30.00S
RIVERSIDE      SUNNY     87  40  19 W15       30.00R
PALM SPRINGS   SUNNY     95  26   8 SE7       29.94S
EL CENTRO NAS  SUNNY     93  31  11 SE5       29.91S
IMPERIAL       SUNNY     93  28  10 S6        29.91S
BLYTHE         SUNNY     92  28  10 SE7       29.94F
NEEDLES        SUNNY     92  20   7 SE8       29.96F
$$

NVZ020-UTZ003-280200-
SOUTHERN NEVADA-UTAH

CITY           SKY/WX    TMP DP  RH WIND       PRES   REMARKS
LAS VEGAS      SUNNY     87  21   9 SE6       29.98F
SALT LAKE CITY CLEAR     69  33  26 N7        30.15F
$$

NMZ009-TXZ055-280200-
NEW MEXICO-WEST TEXAS

CITY           SKY/WX    TMP DP  RH WIND       PRES   REMARKS
ALBUQUERQUE    PTCLDY    74  13   9 NW12      30.14R
EL PASO        CLEAR     77  16  10 W6        30.11S
$$


........................KEY........................
SKY/WX - SKY CONDITION/WEATHER
TMP    - TEMPERATURE IN FAHRENHEIT
DP     - DEW POINT IN FAHRENHEIT
RH     - RELATIVE HUMIDITY IN PERCENT
WIND   - DIRECTION AND SPEED IN MILES PER HOUR (MPH)
VRB    - VARIABLE WIND DIRECTION
PRES   - MEAN SEA LEVEL PRESSURE IN INCHES OF MERCURY
         F - FALLING PRESSURE   R - RISING PRESSURE
         S - STEADY PRESSURE
VSB    - VISIBILITY IN MILES
HX     - HEAT INDEX IN FAHRENHEIT
WCI    - WIND CHILL INDEX IN FAHRENHEIT
TC     - TEMPERATURE IN CELSIUS WHICH IS ALSO KNOWN AS
         TEMPERATURE IN CENTIGRADE
AFB    - AIR FORCE BASE
         LUKE AFB IS LUKE AIR FORCE BASE
         DAVIS-MONTHAN IS DAVIS-MONTHAN AIR FORCE BASE
NAS    - NAVAL AIR STATION
         EL CENTRO NAS IS EL CENTRO NAVAL AIR STATION
N/A    - NOT AVAILABLE



USA.gov is the U.S. government's official web portal to all federal, state and local government web resources and services.